Oscoda, MI

10:22 PM EDT on April 23, 2017 (GMT -0400)
Oscoda-Wurtsmith

Weather History for KOSC - October, 2012

Change the Weather History Date:

Saturday, October 6, 2012

  Actual Average Record
Temperature  
Mean Temperature 42 °F -  
Max Temperature 52 °F 60 °F 91 °F (2007)
Min Temperature 32 °F 41 °F 26 °F (2003)
Degree Days  
Heating Degree Days 22    
Moisture  
Dew Point 33 °F    
Average Humidity 65    
Maximum Humidity 90    
Minimum Humidity 48    
Precipitation  
Precipitation 0.00 in - - ()
Sea Level Pressure  
Sea Level Pressure 29.92 in    
Wind  
Wind Speed 11 mph (West)    
Max Wind Speed 24 mph    
Max Gust Speed 32 mph    
Visibility 10 miles    
Events Rain    
Averages and records for this station are not official NWS values.
T = Trace of Precipitation, MM = Missing Value Source: NWS Daily Summary

Daily Weather History Graph

Daily Weather History Graph

Search for Another Location

Airport or City:

Trip Planner

Search our weather history database for the weather conditions in past years. The results will help you decide how hot, cold, wet, or windy it might be!

Date:

Astronomy

Oct. 06, 2012 Rise Set
Actual Time 7:38 AM EDT 7:04 PM EDT
Civil Twilight 7:08 AM EDT 7:33 PM EDT
Nautical Twilight 6:35 AM EDT 8:06 PM EDT
Astronomical Twilight 6:01 AM EDT 8:40 PM EDT
Moon 11:08 PM EDT (10/6) 1:42 PM EDT (10/6)
Length of Visible Light 12h 24m
Length of Day
11h 26m
Waning Gibbous, 65% of the Moon is Illuminated
Oct 6
Waning Gibbous
Oct 8
Last Quarter
Oct 15
New
Oct 21
First Quarter
Oct 29
Full

Hourly Weather History & Observations

Time (EDT) Temp. Windchill Dew Point Humidity Pressure Visibility Wind Dir Wind Speed Gust Speed Precip Events Conditions
12:13 AM 47.5 °F - 36.0 °F 64% 29.86 in 10.0 mi SW 8.1 mph - N/A   Clear
12:33 AM 47.3 °F - 36.5 °F 66% 29.85 in 10.0 mi SW 8.1 mph - N/A   Scattered Clouds
12:53 AM 46.0 °F 42.5 °F 36.3 °F 69% 29.86 in 10.0 mi SW 6.9 mph - N/A   Clear
1:13 AM 45.9 °F 41.7 °F 36.5 °F 70% 29.85 in 10.0 mi SW 8.1 mph - N/A   Scattered Clouds
1:33 AM 45.3 °F 40.6 °F 35.6 °F 69% 29.85 in 10.0 mi WSW 9.2 mph - N/A   Mostly Cloudy
1:53 AM 43.7 °F 39.7 °F 34.9 °F 71% 29.85 in 10.0 mi WSW 6.9 mph - N/A   Scattered Clouds
2:13 AM 40.8 °F 36.2 °F 34.2 °F 77% 29.85 in 10.0 mi WSW 6.9 mph - N/A   Scattered Clouds
2:33 AM 43.3 °F 39.9 °F 36.1 °F 76% 29.85 in 10.0 mi WNW 5.8 mph - N/A   Overcast
2:53 AM 45.0 °F 41.8 °F 35.6 °F 70% 29.85 in 10.0 mi West 5.8 mph - N/A   Overcast
3:14 AM 43.7 °F 39.7 °F 35.6 °F 73% 29.85 in 10.0 mi SW 6.9 mph - N/A   Overcast
3:33 AM 44.2 °F 39.7 °F 35.6 °F 72% 29.84 in 10.0 mi SW 8.1 mph - N/A   Overcast
3:53 AM 44.2 °F 39.2 °F 35.2 °F 71% 29.84 in 10.0 mi WSW 9.2 mph - N/A   Overcast
4:14 AM 45.0 °F 39.3 °F 32.7 °F 62% 29.84 in 10.0 mi WSW 11.5 mph - N/A   Overcast
4:33 AM 44.8 °F 38.3 °F 32.0 °F 61% 29.84 in 10.0 mi West 13.8 mph 18.4 mph N/A   Overcast
4:53 AM 45.5 °F 38.6 °F 29.7 °F 54% 29.84 in 10.0 mi West 16.1 mph 21.9 mph N/A   Overcast
5:13 AM 45.1 °F 39.5 °F 28.4 °F 52% 29.85 in 10.0 mi West 11.5 mph 20.7 mph N/A   Overcast
5:33 AM 44.8 °F 38.0 °F 27.9 °F 52% 29.84 in 10.0 mi West 15.0 mph 19.6 mph N/A   Overcast
5:54 AM 43.7 °F 37.3 °F 27.5 °F 53% 29.84 in 10.0 mi WSW 12.7 mph - N/A   Scattered Clouds
6:13 AM 42.3 °F 36.3 °F 28.0 °F 57% 29.84 in 10.0 mi West 10.4 mph - N/A   Clear
6:33 AM 41.0 °F 35.2 °F 28.6 °F 61% 29.85 in 10.0 mi West 9.2 mph - N/A   Clear
6:54 AM 40.1 °F 34.7 °F 29.3 °F 65% 29.85 in 10.0 mi WSW 8.1 mph - N/A   Clear
7:13 AM 40.1 °F 33.2 °F 30.0 °F 67% 29.86 in 10.0 mi WSW 11.5 mph - N/A   Clear
7:33 AM 39.7 °F 33.7 °F 30.9 °F 71% 29.86 in 10.0 mi WSW 9.2 mph - N/A   Clear
7:54 AM 38.7 °F 32.9 °F 31.3 °F 75% 29.86 in 10.0 mi SW 8.1 mph - N/A   Scattered Clouds
8:13 AM 39.2 °F 32.5 °F 31.8 °F 75% 29.86 in 10.0 mi SW 10.4 mph - N/A   Clear
8:33 AM 41.7 °F 34.4 °F 32.0 °F 68% 29.86 in 10.0 mi WSW 13.8 mph - N/A   Mostly Cloudy
8:54 AM 42.6 °F 34.9 °F 32.0 °F 66% 29.87 in 10.0 mi WSW 16.1 mph 21.9 mph N/A   Scattered Clouds
9:13 AM 43.7 °F 36.0 °F 32.5 °F 65% 29.87 in 10.0 mi WSW 17.3 mph - N/A   Clear
9:33 AM 45.1 °F 37.1 °F 33.8 °F 65% 29.88 in 10.0 mi West 20.7 mph - N/A   Scattered Clouds
9:54 AM 45.0 °F 38.5 °F 33.6 °F 64% 29.88 in 10.0 mi West 13.8 mph 26.5 mph N/A   Mostly Cloudy
10:13 AM 46.4 °F 39.0 °F 34.0 °F 62% 29.88 in 10.0 mi West 19.6 mph 24.2 mph N/A   Mostly Cloudy
10:33 AM 46.6 °F - 34.9 °F 64% 29.88 in 10.0 mi West 17.3 mph 26.5 mph N/A   Overcast
10:53 AM 45.9 °F 39.1 °F 34.3 °F 64% 29.89 in 10.0 mi West 16.1 mph 25.3 mph N/A   Overcast
11:13 AM 47.5 °F - 34.3 °F 60% 29.89 in 10.0 mi West 16.1 mph 23.0 mph N/A   Overcast
11:33 AM 47.8 °F - 34.0 °F 59% 29.90 in 10.0 mi West 16.1 mph 26.5 mph N/A   Overcast
11:53 AM 47.3 °F - 36.1 °F 65% 29.90 in 10.0 mi West 17.3 mph 29.9 mph N/A Rain Light Rain
12:13 PM 48.2 °F - 36.9 °F 65% 29.90 in 10.0 mi WSW 19.6 mph 25.3 mph N/A   Mostly Cloudy
12:33 PM 49.5 °F - 34.3 °F 56% 29.90 in 10.0 mi West 16.1 mph 26.5 mph N/A   Mostly Cloudy
12:53 PM 52.0 °F - 33.4 °F 49% 29.90 in 10.0 mi WSW 21.9 mph 27.6 mph N/A   Overcast
1:13 PM 48.2 °F - 34.9 °F 60% 29.91 in 10.0 mi WNW 18.4 mph 25.3 mph N/A   Overcast
1:33 PM 50.5 °F - 34.9 °F 55% 29.91 in 10.0 mi West 15.0 mph 25.3 mph N/A   Mostly Cloudy
1:53 PM 52.0 °F - 34.2 °F 51% 29.91 in 10.0 mi West 24.2 mph 32.2 mph N/A   Mostly Cloudy
2:13 PM 51.6 °F - 33.1 °F 49% 29.91 in 10.0 mi West 17.3 mph 25.3 mph N/A   Mostly Cloudy
2:33 PM 52.9 °F - 33.8 °F 48% 29.91 in 10.0 mi WNW 21.9 mph 26.5 mph N/A   Scattered Clouds
2:53 PM 46.0 °F 41.0 °F 36.7 °F 70% 29.92 in 10.0 mi NW 10.4 mph - N/A Rain Light Rain
3:13 PM 48.0 °F - 36.1 °F 63% 29.93 in 10.0 mi WNW 11.5 mph - N/A   Mostly Cloudy
3:33 PM 47.7 °F - 32.0 °F 55% 29.94 in 10.0 mi WNW 17.3 mph 24.2 mph N/A   Scattered Clouds
3:53 PM 50.5 °F - 31.8 °F 49% 29.94 in 10.0 mi NW 15.0 mph 20.7 mph N/A   Scattered Clouds
4:13 PM 47.8 °F - 34.5 °F 60% 29.95 in 10.0 mi WNW 18.4 mph 26.5 mph N/A   Overcast
4:33 PM 50.2 °F - 34.5 °F 55% 29.95 in 10.0 mi WNW 11.5 mph 17.3 mph N/A   Overcast
4:53 PM 49.1 °F - 32.0 °F 52% 29.96 in 10.0 mi WNW 12.7 mph 19.6 mph N/A   Scattered Clouds
5:13 PM 47.5 °F - 35.2 °F 63% 29.96 in 10.0 mi West 9.2 mph 20.7 mph N/A   Mostly Cloudy
5:33 PM 49.3 °F - 34.5 °F 57% 29.97 in 10.0 mi West 10.4 mph - N/A   Mostly Cloudy
5:53 PM 49.8 °F - 32.4 °F 51% 29.98 in 10.0 mi WNW 9.2 mph 20.7 mph N/A   Overcast
6:13 PM 48.6 °F - 30.7 °F 50% 29.98 in 10.0 mi NW 11.5 mph - N/A   Mostly Cloudy
6:33 PM 47.3 °F - 31.5 °F 54% 29.99 in 10.0 mi NW 8.1 mph - N/A   Mostly Cloudy
6:53 PM 46.0 °F 40.6 °F 31.8 °F 58% 30.00 in 10.0 mi NW 11.5 mph - N/A   Overcast
7:13 PM 45.5 °F 40.8 °F 30.9 °F 57% 30.01 in 10.0 mi WNW 9.2 mph - N/A   Overcast
7:33 PM 43.7 °F 39.7 °F 30.6 °F 60% 30.02 in 10.0 mi WNW 6.9 mph - N/A   Mostly Cloudy
7:53 PM 41.9 °F 36.9 °F 30.7 °F 65% 30.03 in 10.0 mi WNW 8.1 mph - N/A   Scattered Clouds
8:13 PM 40.6 °F 36.0 °F 30.7 °F 68% 30.03 in 10.0 mi WNW 6.9 mph - N/A   Clear
8:33 PM 39.6 °F 35.4 °F 30.9 °F 71% 30.04 in 10.0 mi West 5.8 mph - N/A   Clear
8:53 PM 38.3 °F 33.9 °F 30.7 °F 74% 30.05 in 10.0 mi WNW 5.8 mph - N/A   Clear
9:13 PM 38.3 °F 33.2 °F 30.9 °F 75% 30.06 in 10.0 mi WNW 6.9 mph - N/A   Clear
9:33 PM 36.5 °F 31.8 °F 30.6 °F 79% 30.06 in 10.0 mi WNW 5.8 mph - N/A   Clear
9:53 PM 36.5 °F 31.8 °F 31.3 °F 81% 30.06 in 10.0 mi WNW 5.8 mph - N/A   Clear
10:13 PM 36.0 °F 31.1 °F 32.0 °F 86% 30.07 in 10.0 mi WNW 5.8 mph - N/A   Clear
10:33 PM 35.6 °F 29.9 °F 32.0 °F 87% 30.07 in 10.0 mi NW 6.9 mph - N/A   Clear
10:53 PM 35.2 °F 29.5 °F 31.6 °F 87% 30.07 in 10.0 mi NW 6.9 mph - N/A   Clear
11:13 PM 34.7 °F 28.8 °F 31.5 °F 88% 30.07 in 10.0 mi NW 6.9 mph - N/A   Clear
11:33 PM 33.8 °F 29.6 °F 30.9 °F 89% 30.07 in 10.0 mi NW 4.6 mph - N/A   Clear
11:53 PM 32.7 °F 27.3 °F 30.2 °F 90% 30.08 in 10.0 mi WNW 5.8 mph - N/A   Clear